Rakoskert, Hungary

7:27 AM CET on February 25, 2017 (GMT +0100)
Ferihegy

Weather History for LHBP - August, 2014

Change the Weather History Date:

Sunday, August 31, 2014

  Actual Average Record
Temperature  
Mean Temperature 66 °F -  
Max Temperature 73 °F 68 °F 93 °F (2015)
Min Temperature 59 °F 49 °F 44 °F (1998)
Cooling Degree Days 1    
Growing Degree Days 16 (Base 50)    
Moisture  
Dew Point 59 °F    
Average Humidity 77    
Maximum Humidity 94    
Minimum Humidity 60    
Precipitation  
Precipitation 0.00 in - - ()
Sea Level Pressure  
Sea Level Pressure 29.96 in    
Wind  
Wind Speed 4 mph ()    
Max Wind Speed 13 mph    
Max Gust Speed -    
Visibility 6.2 miles    
Events Rain , Thunderstorm    
Averages and records for this station are not official NWS values.
T = Trace of Precipitation, MM = Missing Value Source: Averaged Metar Reports

Daily Weather History Graph

Daily Weather History Graph

Search for Another Location

Airport or City:

Trip Planner

Search our weather history database for the weather conditions in past years. The results will help you decide how hot, cold, wet, or windy it might be!

Date:

Astronomy

Aug. 31, 2014 Rise Set
Actual Time 6:00 AM CEST 7:25 PM CEST
Civil Twilight 5:28 AM CEST 7:57 PM CEST
Nautical Twilight 4:49 AM CEST 8:36 PM CEST
Astronomical Twilight 4:07 AM CEST 9:17 PM CEST
Moon 11:53 AM CEST (8/31) 10:02 PM CEST (8/31)
Length of Visible Light 14h 29m
Length of Day
13h 25m
Waxing Crescent, 29% of the Moon is Illuminated
Aug 31
Waxing Crescent
Sep 2
First Quarter
Sep 9
Full
Sep 16
Last Quarter
Sep 24
New

Hourly Weather History & Observations

Time (CEST) Temp. Dew Point Humidity Pressure Visibility Wind Dir Wind Speed Gust Speed Precip Events Conditions
12:00 AM 66.2 °F 55.4 °F 68% 30.04 in - Variable 2.3 mph - N/A   Clear
12:30 AM 64.4 °F 55.4 °F 73% 30.04 in - Variable 1.2 mph - N/A   Clear
1:00 AM 64.4 °F 55.4 °F 73% 30.04 in - Variable 3.5 mph - N/A   Clear
1:30 AM 60.8 °F 55.4 °F 82% 30.04 in - Variable 3.5 mph - N/A   Clear
2:00 AM 60.8 °F 57.2 °F 88% 30.04 in - Variable 3.5 mph - N/A   Clear
2:30 AM 62.6 °F 57.2 °F 82% 30.04 in - Calm Calm - N/A   Clear
3:00 AM 62.6 °F 57.2 °F 82% 30.04 in - Variable 2.3 mph - N/A   Clear
3:30 AM 60.8 °F 57.2 °F 88% 30.04 in - Variable 2.3 mph - N/A   Clear
4:00 AM 60.8 °F 57.2 °F 88% 30.04 in - Calm Calm - N/A   Clear
4:30 AM 60.8 °F 57.2 °F 88% 30.01 in - Calm Calm - N/A   Clear
5:00 AM 59.0 °F 57.2 °F 94% 30.01 in - Calm Calm - N/A   Clear
5:30 AM 59.0 °F 57.2 °F 94% 30.01 in - Variable 2.3 mph - N/A   Clear
6:00 AM 59.0 °F 57.2 °F 94% 30.01 in - Variable 3.5 mph - N/A   Clear
6:30 AM 60.8 °F 57.2 °F 88% 30.01 in - NW 4.6 mph - N/A   Clear
7:00 AM 62.6 °F 59.0 °F 88% 30.01 in - Variable 3.5 mph - N/A   Clear
7:30 AM 64.4 °F 59.0 °F 83% 30.01 in - WNW 4.6 mph - N/A   Clear
8:00 AM 64.4 °F 59.0 °F 83% 30.01 in - Variable 2.3 mph - N/A   Clear
8:30 AM 66.2 °F 59.0 °F 78% 30.01 in - Variable 3.5 mph - N/A   Clear
9:00 AM 68.0 °F 60.8 °F 78% 30.01 in - Variable 3.5 mph - N/A   Clear
9:30 AM 69.8 °F 59.0 °F 68% 30.01 in - Variable 2.3 mph - N/A   Clear
10:00 AM 69.8 °F 59.0 °F 68% 30.01 in - Variable 2.3 mph - N/A   Clear
10:30 AM 73.4 °F 59.0 °F 61% 30.01 in - Variable 3.5 mph - N/A   Clear
11:00 AM 71.6 °F 59.0 °F 64% 30.01 in - Variable 3.5 mph - N/A   Clear
11:30 AM 71.6 °F 57.2 °F 60% 29.98 in - North 4.6 mph - N/A   Clear
12:00 PM 71.6 °F 59.0 °F 64% 29.98 in 6.2 mi Variable 1.2 mph - N/A   Mostly Cloudy
12:30 PM 71.6 °F 59.0 °F 64% 29.98 in 6.2 mi Variable 3.5 mph - N/A   Mostly Cloudy
1:00 PM 69.8 °F 62.6 °F 78% 29.98 in 6.2 mi NNW 6.9 mph - N/A   Mostly Cloudy
1:30 PM 69.8 °F 60.8 °F 73% 29.98 in 6.2 mi North 10.4 mph - N/A   Mostly Cloudy
2:00 PM 71.6 °F 60.8 °F 69% 29.95 in 6.2 mi North 11.5 mph - N/A   Scattered Clouds
2:30 PM 73.4 °F 60.8 °F 65% 29.95 in 6.2 mi North 11.5 mph - N/A   Scattered Clouds
3:00 PM 73.4 °F 60.8 °F 65% 29.95 in 6.2 mi North 10.4 mph - N/A   Scattered Clouds
3:30 PM 73.4 °F 60.8 °F 65% 29.92 in 6.2 mi North 10.4 mph - N/A   Scattered Clouds
4:00 PM 73.4 °F 60.8 °F 65% 29.92 in 6.2 mi North 9.2 mph - N/A   Scattered Clouds
4:30 PM 73.4 °F 60.8 °F 65% 29.89 in 6.2 mi North 8.1 mph - N/A   Scattered Clouds
5:00 PM 73.4 °F 59.0 °F 61% 29.89 in - North 9.2 mph - N/A   Clear
5:30 PM 71.6 °F 60.8 °F 69% 29.89 in - North 9.2 mph - N/A   Clear
6:00 PM 69.8 °F 60.8 °F 73% 29.89 in - North 8.1 mph - N/A   Clear
6:30 PM 69.8 °F 60.8 °F 73% 29.86 in - North 9.2 mph - N/A   Clear
7:00 PM 68.0 °F 62.6 °F 83% 29.86 in 6.2 mi North 5.8 mph - N/A   Mostly Cloudy
7:30 PM 68.0 °F 60.8 °F 78% 29.86 in 6.2 mi North 6.9 mph - N/A   Mostly Cloudy
8:00 PM 66.2 °F 60.8 °F 83% 29.86 in 6.2 mi North 9.2 mph - N/A   Mostly Cloudy
8:30 PM 66.2 °F 60.8 °F 83% 29.86 in 6.2 mi North 9.2 mph - N/A   Mostly Cloudy
9:00 PM 66.2 °F 60.8 °F 83% 29.86 in 6.2 mi North 6.9 mph - N/A   Mostly Cloudy
9:30 PM 64.4 °F 60.8 °F 88% 29.86 in 6.2 mi NNW 5.8 mph - N/A   Mostly Cloudy
10:00 PM 64.4 °F 60.8 °F 88% 29.86 in 6.2 mi NNW 10.4 mph - N/A Thunderstorm Thunderstorm
10:30 PM 64.4 °F 59.0 °F 83% 29.86 in 6.2 mi North 10.4 mph - N/A   Mostly Cloudy
11:00 PM 64.4 °F 59.0 °F 83% 29.86 in 6.2 mi NNW 10.4 mph - N/A Thunderstorm Thunderstorm
11:30 PM 64.4 °F 59.0 °F 83% 29.86 in 6.2 mi NNW 12.7 mph - N/A Rain , Thunderstorm Light Thunderstorms and Rain